GW4763 Weather Reports


Display with metric or nautical units.
time (UTC)temp
F
wind
direction
speed
MPH
gust
MPH
rain 1hr
in
rain 24hr
in
rain mn
in
humidity
%
barometer
mb
20260503200458 76 2 2.0 9.0 0.00 0.00 0.00 20
20260503195915 75 330 2.0 14.0 0.00 0.00 0.00 22
20260503195258 76 263 4.0 7.0 0.00 0.00 0.00 23
20260503194659 76 128 2.0 9.0 0.00 0.00 0.00 26
20260503194058 75 114 4.0 8.0 0.00 0.00 0.00 25
20260503193549 75 77 3.0 9.0 0.00 0.00 0.00 23
20260503192858 76 164 4.0 14.0 0.00 0.00 0.00 23
20260503192258 76 131 1.0 11.0 0.00 0.00 0.00 27
20260503191659 75 142 4.0 14.0 0.00 0.00 0.00 27
20260503191149 75 37 0.0 9.0 0.00 0.00 0.00 24
20260503190459 75 253 2.0 11.0 0.00 0.00 0.00 27
20260503185915 74 340 2.0 9.0 0.00 0.00 0.00 31
20260503185258 73 15 0.0 9.0 0.00 0.00 0.00 34
20260503184658 73 77 4.0 7.0 0.00 0.00 0.00 30
20260503184058 72 22 1.0 11.0 0.00 0.00 0.00 32
20260503183458 72 15 0.0 10.0 0.00 0.00 0.00 31
20260503182858 74 159 2.0 7.0 0.00 0.00 0.00 30
20260503182259 72 252 0.0 14.0 0.00 0.00 0.00 29
20260503181658 72 142 4.0 14.0 0.00 0.00 0.00 34
20260503181058 72 107 3.0 14.0 0.00 0.00 0.00 36
20260503180459 72 86 2.0 12.0 0.00 0.00 0.00 34
20260503175858 71 85 3.0 7.0 0.00 0.00 0.00 34
20260503175259 70 102 4.0 9.0 0.00 0.00 0.00 35
20260503174658 69 58 4.0 16.0 0.00 0.00 0.00 37
20260503174101 70 86 0.0 14.0 0.00 0.00 0.00 36
20260503173458 70 93 5.0 9.0 0.00 0.00 0.00 38
20260503172858 69 85 4.0 14.0 0.00 0.00 0.00 40
20260503172259 68 77 4.0 16.0 0.00 0.00 0.00 40
20260503171716 68 110 8.0 9.0 0.00 0.00 0.00 41
20260503171058 68 151 2.0 11.0 0.00 0.00 0.00 42
20260503170515 67 113 2.0 14.0 0.00 0.00 0.00 44
20260503150458 58 104 3.0 10.0 0.00 0.00 0.00 62
20260503131115 40 267 0.0 0.0 0.00 0.00 0.00 96
20260503130458 39 267 0.0 3.0 0.00 0.00 0.00 97
20260503110458 38 273 0.0 3.0 0.00 0.00 0.00 92
20260503090458 40 290 0.0 2.0 0.00 0.00 0.00 90
20260503081058 43 238 0.0 2.0 0.00 0.00 0.00 87
20260503080515 44 254 0.0 0.0 0.00 0.00 0.00 85
20260503072858 44 270 0.0 3.0 0.00 0.00 0.00 84
20260503072333 44 274 1.0 3.0 0.00 0.00 0.00 84
20260503071732 43 275 2.0 3.0 0.00 0.00 0.00 84
20260503071059 43 276 1.0 2.0 0.00 0.00 0.00 85
20260503070515 44 280 0.0 2.0 0.00 0.00 0.00 84
20260503054659 49 296 0.0 3.0 0.00 0.00 0.00 78
20260503054058 50 306 0.0 3.0 0.00 0.00 0.00 71
20260503053515 50 298 0.0 3.0 0.00 0.00 0.00 69
20260503052858 51 299 2.0 4.0 0.00 0.00 0.00 69
20260503052258 52 299 1.0 3.0 0.00 0.00 0.00 67
20260503051715 52 310 1.0 4.0 0.00 0.00 0.00 65
20260503051059 52 320 3.0 5.0 0.00 0.00 0.00 65
20260503050458 52 329 3.0 5.0 0.00 0.00 0.00 65
20260503045858 52 334 3.0 4.0 0.00 0.00 0.00 66
20260503045258 53 320 0.0 4.0 0.00 0.00 0.00 64
20260503044658 53 324 0.0 5.0 0.00 0.00 0.00 65
20260503044058 52 321 2.0 5.0 0.00 0.00 0.00 66
20260503043458 52 307 0.0 3.0 0.00 0.00 0.00 76
20260503042858 53 256 1.0 3.0 0.00 0.00 0.00 72
20260503042259 54 347 0.0 3.0 0.00 0.00 0.00 64
20260503041658 55 19 0.0 3.0 0.00 0.00 0.00 63
20260503041115 55 117 0.0 5.0 0.00 0.00 0.00 62
20260503040515 56 132 3.0 7.0 0.00 0.00 0.00 59
20260503035859 55 130 0.0 4.0 0.00 0.00 0.00 63
20260503035316 55 64 0.0 6.0 0.00 0.00 0.00 58
20260503034715 53 29 1.0 4.0 0.00 0.00 0.00 64
20260503034058 53 326 2.0 4.0 0.00 0.00 0.00 71
20260503033458 52 278 0.0 0.0 0.00 0.00 0.00 80
20260503032858 53 272 0.0 0.0 0.00 0.00 0.00 74
20260503032259 54 342 0.0 4.0 0.00 0.00 0.00 69
20260503031715 55 344 1.0 2.0 0.00 0.00 0.00 65
20260503031059 58 129 0.0 6.0 0.00 0.00 0.00 54
20260503030458 57 148 0.0 3.0 0.00 0.00 0.00 56
20260503025859 58 122 0.0 5.0 0.00 0.00 0.00 56
20260503025259 59 235 0.0 4.0 0.00 0.00 0.00 57
20260503024659 60 141 0.0 6.0 0.00 0.00 0.00 51
20260503024058 59 119 2.0 8.0 0.00 0.00 0.00 53
20260503023515 56 176 0.0 5.0 0.00 0.00 0.00 68
20260503022858 56 202 2.0 3.0 0.00 0.00 0.00 72
20260503022258 57 107 0.0 0.0 0.00 0.00 0.00 69
20260503021716 60 107 0.0 2.0 0.00 0.00 0.00 60
20260503021100 62 91 0.0 2.0 0.00 0.00 0.00 47
20260503020458 63 68 0.0 5.0 0.00 0.00 0.00 43
20260503015859 64 90 1.0 9.0 0.00 0.00 0.00 42
20260503015350 64 113 3.0 9.0 0.00 0.00 0.00 42
20260503014659 65 93 1.0 11.0 0.00 0.00 0.00 41
20260503014058 65 97 3.0 10.0 0.00 0.00 0.00 40
20260503013459 66 79 4.0 14.0 0.00 0.00 0.00 39
20260503012859 66 78 5.0 14.0 0.00 0.00 0.00 39
20260503012258 67 110 4.0 11.0 0.00 0.00 0.00 38
20260503011659 67 86 5.0 12.0 0.00 0.00 0.00 38
20260503011059 68 105 2.0 12.0 0.00 0.00 0.00 36
20260503010459 67 97 3.0 13.0 0.00 0.00 0.00 36
20260503005915 67 65 5.0 11.0 0.00 0.00 0.00 37
20260503005316 67 51 1.0 5.0 0.00 0.00 0.00 36
20260503004658 68 143 0.0 6.0 0.00 0.00 0.00 36
20260503004059 68 11 0.0 7.0 0.00 0.00 0.00 35
20260503003459 68 0 3.0 8.0 0.00 0.00 0.00 37
20260503002858 68 35 4.0 9.0 0.00 0.00 0.00 35
20260503002258 68 48 1.0 7.0 0.00 0.00 0.00 34
20260503001659 69 23 3.0 7.0 0.00 0.00 0.00 35
20260503001058 69 96 2.0 11.0 0.00 0.00 0.00 33
20260503000515 69 80 4.0 10.0 0.00 0.00 0.00 34
20260502235859 69 106 3.0 8.0 0.00 0.00 0.00 34
20260502235259 69 85 0.0 9.0 0.00 0.00 0.00 34
20260502234715 70 92 4.0 9.0 0.00 0.00 0.00 32
20260502234058 70 89 2.0 9.0 0.00 0.00 0.00 35
20260502233458 70 52 2.0 11.0 0.00 0.00 0.00 35
20260502232859 70 40 4.0 8.0 0.00 0.00 0.00 34
20260502232259 70 25 3.0 9.0 0.00 0.00 0.00 33
20260502231658 71 64 3.0 8.0 0.00 0.00 0.00 34
20260502231058 70 71 0.0 5.0 0.00 0.00 0.00 30
20260502230532 69 134 1.0 8.0 0.00 0.00 0.00 31
20260502225858 70 111 3.0 7.0 0.00 0.00 0.00 33
20260502225315 71 75 2.0 11.0 0.00 0.00 0.00 30
20260502224658 71 110 4.0 10.0 0.00 0.00 0.00 31
20260502224059 70 94 4.0 8.0 0.00 0.00 0.00 32
20260502223458 71 88 3.0 9.0 0.00 0.00 0.00 31
20260502222859 70 38 0.0 9.0 0.00 0.00 0.00 32
20260502222259 70 52 0.0 8.0 0.00 0.00 0.00 33
20260502221715 70 55 2.0 9.0 0.00 0.00 0.00 33
20260502221059 71 44 5.0 14.0 0.00 0.00 0.00 30
20260502220515 72 79 7.0 13.0 0.00 0.00 0.00 35
20260502215858 72 25 5.0 15.0 0.00 0.00 0.00 33
20260502215259 71 54 3.0 12.0 0.00 0.00 0.00 33
20260502214658 72 64 3.0 9.0 0.00 0.00 0.00 32
20260502214059 71 22 0.0 11.0 0.00 0.00 0.00 31
20260502213458 70 43 4.0 12.0 0.00 0.00 0.00 37
20260502212916 70 39 5.0 14.0 0.00 0.00 0.00 35
20260502212316 69 38 3.0 12.0 0.00 0.00 0.00 33
20260502211658 71 49 2.0 13.0 0.00 0.00 0.00 33
20260502210516 70 130 3.0 6.0 0.00 0.00 0.00 35
20260502205858 70 65 2.0 10.0 0.00 0.00 0.00 29
20260502205258 72 139 7.0 9.0 0.00 0.00 0.00 32
20260502204658 71 14 4.0 12.0 0.00 0.00 0.00 32
20260502204115 71 76 5.0 12.0 0.00 0.00 0.00 30
20260502203458 70 128 0.0 8.0 0.00 0.00 0.00 33
20260502202858 69 323 1.0 12.0 0.00 0.00 0.00 32
20260502202258 68 133 5.0 11.0 0.00 0.00 0.00 36
20260502201658 68 139 4.0 16.0 0.00 0.00 0.00 34
20260502201058 69 85 5.0 13.0 0.00 0.00 0.00 32